Location: Alulod
(14.2076°N, 120.8898°E)
Time: 02:46:49
(UTC+00:00)

USA 238 DEB - Pass Details

Date: 22 March 2026
Orbit: 883 x 1328 km, 63.4° (Epoch: 10 January)

Event Time Altitude Azimuth Distance (km) Brightness Sun altitude
Exits shadow 18:21:15 12° 26° (NNE) 3,137 6.4 -52.7°
Maximum altitude 18:25:26 17° 59° (ENE) 2,800 6.2 -51.7°
Drops below altitude 10° 18:30:23 10° 97° (E) 3,348 6.7 -50.6°
Sets 18:34:32 0° 116° (ESE) 4,324 7.3 -49.6°
